owner,sensor,date,latitude,longitude,vertical_datum,wind_speed,wind_to_direction,wind_speed_of_gust,qcFlag 
DISL,ioos:station:DISL:KATA:1,2012-05-01T00:00:00Z,30.2583,-88.2131,0.0,4.18,191.8,-9999.0,'1111122,1111122,1111122' 
DISL,ioos:station:DISL:KATA:1,2012-05-01T00:30:00Z,30.2583,-88.2131,0.0,4.19,219.4,-9999.0,'1111122,1111122,1111122' 
DISL,ioos:station:DISL:KATA:1,2012-05-01T01:00:00Z,30.2583,-88.2131,0.0,3.32,213.1,-9999.0,'1111122,1111122,1111122' 
DISL,ioos:station:DISL:KATA:1,2012-05-01T01:30:00Z,30.2583,-88.2131,0.0,2.09,207.9,-9999.0,'1111122,1111122,1111122' 
DISL,ioos:station:DISL:KATA:1,2012-05-01T02:00:00Z,30.2583,-88.2131,0.0,2.09,192.4,-9999.0,'1111122,1111122,1111122' 
DISL,ioos:station:DISL:KATA:1,2012-05-01T02:30:00Z,30.2583,-88.2131,0.0,3.05,172.9,-9999.0,'1111122,1111122,1111122' 
DISL,ioos:station:DISL:KATA:1,2012-05-01T03:00:00Z,30.2583,-88.2131,0.0,3.44,163.3,-9999.0,'1111122,1111122,1111122' 
DISL,ioos:station:DISL:KATA:1,2012-05-01T03:30:00Z,30.2583,-88.2131,0.0,3.91,161.8,-9999.0,'1111122,1111122,1111122' 
DISL,ioos:station:DISL:KATA:1,2012-05-01T04:00:00Z,30.2583,-88.2131,0.0,4.17,147.8,-9999.0,'1111122,1111122,1111122' 
DISL,ioos:station:DISL:KATA:1,2012-05-01T04:30:00Z,30.2583,-88.2131,0.0,3.92,149.5,-9999.0,'1111122,1111122,1111122' 
DISL,ioos:station:DISL:KATA:1,2012-05-01T05:00:00Z,30.2583,-88.2131,0.0,3.01,156.6,-9999.0,'1111122,1111122,1111122' 
DISL,ioos:station:DISL:KATA:1,2012-05-01T05:30:00Z,30.2583,-88.2131,0.0,2.0,162.7,-9999.0,'1111122,1111122,1111122' 
DISL,ioos:station:DISL:KATA:1,2012-05-01T06:00:00Z,30.2583,-88.2131,0.0,2.15,166.2,-9999.0,'1111122,1111122,1111122' 
DISL,ioos:station:DISL:KATA:1,2012-05-01T06:30:00Z,30.2583,-88.2131,0.0,1.98,164.2,-9999.0,'1111122,1111122,1111122' 
DISL,ioos:station:DISL:KATA:1,2012-05-01T07:00:00Z,30.2583,-88.2131,0.0,1.54,149.6,-9999.0,'1111122,1111122,1111122' 
DISL,ioos:station:DISL:KATA:1,2012-05-01T07:30:00Z,30.2583,-88.2131,0.0,1.5,129.0,-9999.0,'1111122,1111122,1111122' 
DISL,ioos:station:DISL:KATA:1,2012-05-01T08:00:00Z,30.2583,-88.2131,0.0,1.87,115.3,-9999.0,'1111122,1111122,1111122' 
DISL,ioos:station:DISL:KATA:1,2012-05-01T08:30:00Z,30.2583,-88.2131,0.0,1.65,105.0,-9999.0,'1111122,1111122,1111122' 
DISL,ioos:station:DISL:KATA:1,2012-05-01T09:00:00Z,30.2583,-88.2131,0.0,1.67,80.1,-9999.0,'1111122,1111122,1111122' 
DISL,ioos:station:DISL:KATA:1,2012-05-01T09:30:00Z,30.2583,-88.2131,0.0,2.26,72.94,-9999.0,'1111122,1111122,1111122' 
DISL,ioos:station:DISL:KATA:1,2012-05-01T10:00:00Z,30.2583,-88.2131,0.0,3.12,66.77,-9999.0,'1111122,1111122,1111122' 
DISL,ioos:station:DISL:KATA:1,2012-05-01T10:30:00Z,30.2583,-88.2131,0.0,4.1,74.68,-9999.0,'1111122,1111122,1111122' 
DISL,ioos:station:DISL:KATA:1,2012-05-01T11:00:00Z,30.2583,-88.2131,0.0,5.16,76.32,-9999.0,'1111122,1111122,1111122' 
DISL,ioos:station:DISL:KATA:1,2012-05-01T11:30:00Z,30.2583,-88.2131,0.0,5.61,82.2,-9999.0,'1111122,1111122,1111122' 
DISL,ioos:station:DISL:KATA:1,2012-05-01T12:00:00Z,30.2583,-88.2131,0.0,5.11,83.8,-9999.0,'1111122,1111122,1111122' 
DISL,ioos:station:DISL:KATA:1,2012-05-01T12:30:00Z,30.2583,-88.2131,0.0,4.97,81.6,-9999.0,'1111122,1111122,1111122' 
DISL,ioos:station:DISL:KATA:1,2012-05-01T13:00:00Z,30.2583,-88.2131,0.0,4.41,91.7,-9999.0,'1111122,1111122,1111122' 
DISL,ioos:station:DISL:KATA:1,2012-05-01T13:30:00Z,30.2583,-88.2131,0.0,4.55,100.5,-9999.0,'1111122,1111122,1111122' 
DISL,ioos:station:DISL:KATA:1,2012-05-01T14:00:00Z,30.2583,-88.2131,0.0,6.04,104.4,-9999.0,'1111122,1111122,1111122' 
DISL,ioos:station:DISL:KATA:1,2012-05-01T14:30:00Z,30.2583,-88.2131,0.0,6.92,98.8,-9999.0,'1111122,1111122,1111122' 
DISL,ioos:station:DISL:KATA:1,2012-05-01T15:00:00Z,30.2583,-88.2131,0.0,7.48,95.8,-9999.0,'1111122,1111122,1111122' 
DISL,ioos:station:DISL:KATA:1,2012-05-01T15:30:00Z,30.2583,-88.2131,0.0,7.15,98.8,-9999.0,'1111122,1111122,1111122' 
DISL,ioos:station:DISL:KATA:1,2012-05-01T16:00:00Z,30.2583,-88.2131,0.0,7.74,105.6,-9999.0,'1111122,1111122,1111122' 
DISL,ioos:station:DISL:KATA:1,2012-05-01T16:30:00Z,30.2583,-88.2131,0.0,8.43,95.9,-9999.0,'1111122,1111122,1111122' 
DISL,ioos:station:DISL:KATA:1,2012-05-01T17:00:00Z,30.2583,-88.2131,0.0,8.75,108.2,-9999.0,'1111122,1111122,1111122' 
DISL,ioos:station:DISL:KATA:1,2012-05-01T17:30:00Z,30.2583,-88.2131,0.0,8.39,108.1,-9999.0,'1111122,1111122,1111122' 
DISL,ioos:station:DISL:KATA:1,2012-05-01T18:00:00Z,30.2583,-88.2131,0.0,7.79,96.6,-9999.0,'1111122,1111122,1111122' 
DISL,ioos:station:DISL:KATA:1,2012-05-01T18:30:00Z,30.2583,-88.2131,0.0,7.16,104.7,-9999.0,'1111122,1111122,1111122' 
DISL,ioos:station:DISL:KATA:1,2012-05-01T19:00:00Z,30.2583,-88.2131,0.0,6.75,106.6,-9999.0,'1111122,1111122,1111122' 
DISL,ioos:station:DISL:KATA:1,2012-05-01T19:30:00Z,30.2583,-88.2131,0.0,8.11,108.4,-9999.0,'1111122,1111122,1111122' 
DISL,ioos:station:DISL:KATA:1,2012-05-01T20:00:00Z,30.2583,-88.2131,0.0,8.27,107.2,-9999.0,'1111122,1111122,1111122' 
DISL,ioos:station:DISL:KATA:1,2012-05-01T20:30:00Z,30.2583,-88.2131,0.0,8.31,109.5,-9999.0,'1111122,1111122,1111122' 
DISL,ioos:station:DISL:KATA:1,2012-05-01T21:00:00Z,30.2583,-88.2131,0.0,8.5,109.4,-9999.0,'1111122,1111122,1111122' 
DISL,ioos:station:DISL:KATA:1,2012-05-01T21:30:00Z,30.2583,-88.2131,0.0,7.61,103.5,-9999.0,'1111122,1111122,1111122' 
DISL,ioos:station:DISL:KATA:1,2012-05-01T22:00:00Z,30.2583,-88.2131,0.0,7.75,104.7,-9999.0,'1111122,1111122,1111122' 
DISL,ioos:station:DISL:KATA:1,2012-05-01T22:30:00Z,30.2583,-88.2131,0.0,6.96,98.7,-9999.0,'1111122,1111122,1111122' 
DISL,ioos:station:DISL:KATA:1,2012-05-01T23:00:00Z,30.2583,-88.2131,0.0,6.93,97.5,-9999.0,'1111122,1111122,1111122' 
DISL,ioos:station:DISL:KATA:1,2012-05-01T23:30:00Z,30.2583,-88.2131,0.0,7.9,106.6,-9999.0,'1111122,1111122,1111122' 
DISL,ioos:station:DISL:KATA:1,2012-05-02T00:00:00Z,30.2583,-88.2131,0.0,8.91,115.4,-9999.0,'1111122,1111122,1111122' 
DISL,ioos:station:DISL:KATA:1,2012-05-02T00:30:00Z,30.2583,-88.2131,0.0,9.81,118.5,-9999.0,'1111122,1111122,1111122' 
DISL,ioos:station:DISL:KATA:1,2012-05-02T01:00:00Z,30.2583,-88.2131,0.0,9.06,115.6,-9999.0,'1111122,1111122,1111122' 
DISL,ioos:station:DISL:KATA:1,2012-05-02T01:30:00Z,30.2583,-88.2131,0.0,8.94,105.3,-9999.0,'1111122,1111122,1111122' 
DISL,ioos:station:DISL:KATA:1,2012-05-02T02:00:00Z,30.2583,-88.2131,0.0,8.68,108.6,-9999.0,'1111122,1111122,1111122' 
DISL,ioos:station:DISL:KATA:1,2012-05-02T02:30:00Z,30.2583,-88.2131,0.0,8.69,107.7,-9999.0,'1111122,1111122,1111122' 
DISL,ioos:station:DISL:KATA:1,2012-05-02T03:00:00Z,30.2583,-88.2131,0.0,8.67,112.9,-9999.0,'1111122,1111122,1111122' 
DISL,ioos:station:DISL:KATA:1,2012-05-02T03:30:00Z,30.2583,-88.2131,0.0,8.02,118.6,-9999.0,'1111122,1111122,1111122' 
DISL,ioos:station:DISL:KATA:1,2012-05-02T04:00:00Z,30.2583,-88.2131,0.0,7.86,118.5,-9999.0,'1111122,1111122,1111122' 
DISL,ioos:station:DISL:KATA:1,2012-05-02T04:30:00Z,30.2583,-88.2131,0.0,8.44,117.0,-9999.0,'1111122,1111122,1111122' 
DISL,ioos:station:DISL:KATA:1,2012-05-02T05:00:00Z,30.2583,-88.2131,0.0,7.29,113.1,-9999.0,'1111122,1111122,1111122' 
DISL,ioos:station:DISL:KATA:1,2012-05-02T05:30:00Z,30.2583,-88.2131,0.0,7.19,106.2,-9999.0,'1111122,1111122,1111122' 
DISL,ioos:station:DISL:KATA:1,2012-05-02T06:00:00Z,30.2583,-88.2131,0.0,5.97,113.9,-9999.0,'1111122,1111122,1111122' 
DISL,ioos:station:DISL:KATA:1,2012-05-02T06:30:00Z,30.2583,-88.2131,0.0,5.62,121.2,-9999.0,'1111122,1111122,1111122' 
DISL,ioos:station:DISL:KATA:1,2012-05-02T07:00:00Z,30.2583,-88.2131,0.0,6.16,113.7,-9999.0,'1111122,1111122,1111122' 
DISL,ioos:station:DISL:KATA:1,2012-05-02T07:30:00Z,30.2583,-88.2131,0.0,6.58,111.7,-9999.0,'1111122,1111122,1111122' 
DISL,ioos:station:DISL:KATA:1,2012-05-02T08:00:00Z,30.2583,-88.2131,0.0,7.71,116.1,-9999.0,'1111122,1111122,1111122' 
DISL,ioos:station:DISL:KATA:1,2012-05-02T08:30:00Z,30.2583,-88.2131,0.0,8.22,121.6,-9999.0,'1111122,1111122,1111122' 
DISL,ioos:station:DISL:KATA:1,2012-05-02T09:00:00Z,30.2583,-88.2131,0.0,8.24,118.2,-9999.0,'1111122,1111122,1111122' 
DISL,ioos:station:DISL:KATA:1,2012-05-02T09:30:00Z,30.2583,-88.2131,0.0,7.97,119.1,-9999.0,'1111122,1111122,1111122' 
DISL,ioos:station:DISL:KATA:1,2012-05-02T10:00:00Z,30.2583,-88.2131,0.0,8.64,117.8,-9999.0,'1111122,1111122,1111122' 
DISL,ioos:station:DISL:KATA:1,2012-05-02T10:30:00Z,30.2583,-88.2131,0.0,8.74,115.3,-9999.0,'1111122,1111122,1111122' 
DISL,ioos:station:DISL:KATA:1,2012-05-02T11:00:00Z,30.2583,-88.2131,0.0,9.2,117.6,-9999.0,'1111122,1111122,1111122' 
DISL,ioos:station:DISL:KATA:1,2012-05-02T11:30:00Z,30.2583,-88.2131,0.0,8.16,116.8,-9999.0,'1111122,1111122,1111122' 
DISL,ioos:station:DISL:KATA:1,2012-05-02T12:00:00Z,30.2583,-88.2131,0.0,7.96,118.3,-9999.0,'1111122,1111122,1111122' 
DISL,ioos:station:DISL:KATA:1,2012-05-02T12:30:00Z,30.2583,-88.2131,0.0,8.29,114.2,-9999.0,'1111122,1111122,1111122' 
DISL,ioos:station:DISL:KATA:1,2012-05-02T13:00:00Z,30.2583,-88.2131,0.0,8.96,112.8,-9999.0,'1111122,1111122,1111122' 
DISL,ioos:station:DISL:KATA:1,2012-05-02T13:30:00Z,30.2583,-88.2131,0.0,9.39,119.6,-9999.0,'1111122,1111122,1111122' 
DISL,ioos:station:DISL:KATA:1,2012-05-02T14:00:00Z,30.2583,-88.2131,0.0,9.37,120.1,-9999.0,'1111122,1111122,1111122' 
DISL,ioos:station:DISL:KATA:1,2012-05-02T14:30:00Z,30.2583,-88.2131,0.0,9.37,118.8,-9999.0,'1111122,1111122,1111122' 
DISL,ioos:station:DISL:KATA:1,2012-05-02T15:00:00Z,30.2583,-88.2131,0.0,8.97,123.7,-9999.0,'1111122,1111122,1111122' 
DISL,ioos:station:DISL:KATA:1,2012-05-02T15:30:00Z,30.2583,-88.2131,0.0,10.45,123.0,-9999.0,'1111122,1111122,1111122' 
DISL,ioos:station:DISL:KATA:1,2012-05-02T16:00:00Z,30.2583,-88.2131,0.0,10.44,127.7,-9999.0,'1111122,1111122,1111122' 
DISL,ioos:station:DISL:KATA:1,2012-05-02T16:30:00Z,30.2583,-88.2131,0.0,9.78,114.2,-9999.0,'1111122,1111122,1111122' 
DISL,ioos:station:DISL:KATA:1,2012-05-02T17:00:00Z,30.2583,-88.2131,0.0,10.13,118.5,-9999.0,'1111122,1111122,1111122' 
DISL,ioos:station:DISL:KATA:1,2012-05-02T17:30:00Z,30.2583,-88.2131,0.0,10.96,111.5,-9999.0,'1111122,1111122,1111122' 
DISL,ioos:station:DISL:KATA:1,2012-05-02T18:00:00Z,30.2583,-88.2131,0.0,9.6,108.9,-9999.0,'1111122,1111122,1111122' 
DISL,ioos:station:DISL:KATA:1,2012-05-02T18:30:00Z,30.2583,-88.2131,0.0,10.78,112.2,-9999.0,'1111122,1111122,1111122' 
DISL,ioos:station:DISL:KATA:1,2012-05-02T19:00:00Z,30.2583,-88.2131,0.0,9.06,123.4,-9999.0,'1111122,1111122,1111122' 
DISL,ioos:station:DISL:KATA:1,2012-05-02T19:30:00Z,30.2583,-88.2131,0.0,9.89,105.9,-9999.0,'1111122,1111122,1111122' 
DISL,ioos:station:DISL:KATA:1,2012-05-02T20:00:00Z,30.2583,-88.2131,0.0,10.18,115.4,-9999.0,'1111122,1111122,1111122' 
DISL,ioos:station:DISL:KATA:1,2012-05-02T20:30:00Z,30.2583,-88.2131,0.0,11.14,117.5,-9999.0,'1111122,1111122,1111122' 
DISL,ioos:station:DISL:KATA:1,2012-05-02T21:00:00Z,30.2583,-88.2131,0.0,10.95,116.7,-9999.0,'1111122,1111122,1111122' 
DISL,ioos:station:DISL:KATA:1,2012-05-02T21:30:00Z,30.2583,-88.2131,0.0,13.45,98.6,-9999.0,'1111122,1111122,1111122' 
DISL,ioos:station:DISL:KATA:1,2012-05-02T22:00:00Z,30.2583,-88.2131,0.0,14.11,123.1,-9999.0,'1111122,1111122,1111122' 
DISL,ioos:station:DISL:KATA:1,2012-05-02T22:30:00Z,30.2583,-88.2131,0.0,9.29,106.0,-9999.0,'1111122,1111122,1111122' 
DISL,ioos:station:DISL:KATA:1,2012-05-02T23:00:00Z,30.2583,-88.2131,0.0,7.04,61.63,-9999.0,'1111122,1111122,1111122' 
DISL,ioos:station:DISL:KATA:1,2012-05-02T23:30:00Z,30.2583,-88.2131,0.0,10.74,63.9,-9999.0,'1111122,1111122,1111122' 
DISL,ioos:station:DISL:KATA:1,2012-05-03T00:00:00Z,30.2583,-88.2131,0.0,12.96,62.37,-9999.0,'1111122,1111122,1111122' 
DISL,ioos:station:DISL:KATA:1,2012-05-03T00:30:00Z,30.2583,-88.2131,0.0,12.81,71.71,-9999.0,'1111122,1111122,1111122' 
DISL,ioos:station:DISL:KATA:1,2012-05-03T01:00:00Z,30.2583,-88.2131,0.0,11.66,40.36,-9999.0,'1111122,1111122,1111122' 
DISL,ioos:station:DISL:KATA:1,2012-05-03T01:30:00Z,30.2583,-88.2131,0.0,11.14,29.0,-9999.0,'1111122,1111122,1111122' 
DISL,ioos:station:DISL:KATA:1,2012-05-03T02:00:00Z,30.2583,-88.2131,0.0,7.76,35.44,-9999.0,'1111122,1111122,1111122' 
DISL,ioos:station:DISL:KATA:1,2012-05-03T02:30:00Z,30.2583,-88.2131,0.0,8.77,89.3,-9999.0,'1111122,1111122,1111122' 
DISL,ioos:station:DISL:KATA:1,2012-05-03T03:00:00Z,30.2583,-88.2131,0.0,8.69,83.4,-9999.0,'1111122,1111122,1111122' 
DISL,ioos:station:DISL:KATA:1,2012-05-03T03:30:00Z,30.2583,-88.2131,0.0,7.72,81.5,-9999.0,'1111122,1111122,1111122' 
DISL,ioos:station:DISL:KATA:1,2012-05-03T04:00:00Z,30.2583,-88.2131,0.0,6.44,75.77,-9999.0,'1111122,1111122,1111122' 
DISL,ioos:station:DISL:KATA:1,2012-05-03T04:30:00Z,30.2583,-88.2131,0.0,5.44,60.5,-9999.0,'1111122,1111122,1111122' 
DISL,ioos:station:DISL:KATA:1,2012-05-03T05:00:00Z,30.2583,-88.2131,0.0,8.51,66.94,-9999.0,'1111122,1111122,1111122' 
DISL,ioos:station:DISL:KATA:1,2012-05-03T05:30:00Z,30.2583,-88.2131,0.0,10.93,87.5,-9999.0,'1111122,1111122,1111122' 
DISL,ioos:station:DISL:KATA:1,2012-05-03T06:00:00Z,30.2583,-88.2131,0.0,9.75,94.9,-9999.0,'1111122,1111122,1111122' 
DISL,ioos:station:DISL:KATA:1,2012-05-03T06:30:00Z,30.2583,-88.2131,0.0,12.12,107.3,-9999.0,'1111122,1111122,1111122' 
DISL,ioos:station:DISL:KATA:1,2012-05-03T07:00:00Z,30.2583,-88.2131,0.0,10.12,109.0,-9999.0,'1111122,1111122,1111122' 
DISL,ioos:station:DISL:KATA:1,2012-05-03T07:30:00Z,30.2583,-88.2131,0.0,9.32,108.9,-9999.0,'1111122,1111122,1111122' 
DISL,ioos:station:DISL:KATA:1,2012-05-03T08:00:00Z,30.2583,-88.2131,0.0,8.74,98.6,-9999.0,'1111122,1111122,1111122' 
DISL,ioos:station:DISL:KATA:1,2012-05-03T08:30:00Z,30.2583,-88.2131,0.0,6.76,111.6,-9999.0,'1111122,1111122,1111122' 
DISL,ioos:station:DISL:KATA:1,2012-05-03T09:00:00Z,30.2583,-88.2131,0.0,6.22,126.8,-9999.0,'1111122,1111122,1111122' 
DISL,ioos:station:DISL:KATA:1,2012-05-03T09:30:00Z,30.2583,-88.2131,0.0,5.54,130.5,-9999.0,'1111122,1111122,1111122' 
DISL,ioos:station:DISL:KATA:1,2012-05-03T10:00:00Z,30.2583,-88.2131,0.0,5.89,111.0,-9999.0,'1111122,1111122,1111122' 
DISL,ioos:station:DISL:KATA:1,2012-05-03T10:30:00Z,30.2583,-88.2131,0.0,6.84,108.4,-9999.0,'1111122,1111122,1111122' 
DISL,ioos:station:DISL:KATA:1,2012-05-03T11:00:00Z,30.2583,-88.2131,0.0,6.77,104.2,-9999.0,'1111122,1111122,1111122' 
DISL,ioos:station:DISL:KATA:1,2012-05-03T11:30:00Z,30.2583,-88.2131,0.0,7.17,112.3,-9999.0,'1111122,1111122,1111122' 
DISL,ioos:station:DISL:KATA:1,2012-05-03T12:00:00Z,30.2583,-88.2131,0.0,9.06,102.4,-9999.0,'1111122,1111122,1111122' 
DISL,ioos:station:DISL:KATA:1,2012-05-03T12:30:00Z,30.2583,-88.2131,0.0,8.26,101.8,-9999.0,'1111122,1111122,1111122' 
DISL,ioos:station:DISL:KATA:1,2012-05-03T13:00:00Z,30.2583,-88.2131,0.0,8.11,111.0,-9999.0,'1111122,1111122,1111122' 
DISL,ioos:station:DISL:KATA:1,2012-05-03T13:30:00Z,30.2583,-88.2131,0.0,8.6,104.1,-9999.0,'1111122,1111122,1111122' 
DISL,ioos:station:DISL:KATA:1,2012-05-03T14:00:00Z,30.2583,-88.2131,0.0,8.94,103.3,-9999.0,'1111122,1111122,1111122' 
DISL,ioos:station:DISL:KATA:1,2012-05-03T14:30:00Z,30.2583,-88.2131,0.0,8.93,114.4,-9999.0,'1111122,1111122,1111122' 
DISL,ioos:station:DISL:KATA:1,2012-05-03T15:00:00Z,30.2583,-88.2131,0.0,8.48,117.9,-9999.0,'1111122,1111122,1111122' 
DISL,ioos:station:DISL:KATA:1,2012-05-03T15:30:00Z,30.2583,-88.2131,0.0,7.46,118.0,-9999.0,'1111122,1111122,1111122' 
DISL,ioos:station:DISL:KATA:1,2012-05-03T16:00:00Z,30.2583,-88.2131,0.0,5.98,127.8,-9999.0,'1111122,1111122,1111122' 
DISL,ioos:station:DISL:KATA:1,2012-05-03T16:30:00Z,30.2583,-88.2131,0.0,5.98,122.8,-9999.0,'1111122,1111122,1111122' 
DISL,ioos:station:DISL:KATA:1,2012-05-03T17:00:00Z,30.2583,-88.2131,0.0,6.97,112.9,-9999.0,'1111122,1111122,1111122' 
DISL,ioos:station:DISL:KATA:1,2012-05-03T17:30:00Z,30.2583,-88.2131,0.0,7.93,112.4,-9999.0,'1111122,1111122,1111122' 
DISL,ioos:station:DISL:KATA:1,2012-05-03T18:00:00Z,30.2583,-88.2131,0.0,7.42,108.4,-9999.0,'1111122,1111122,1111122' 
DISL,ioos:station:DISL:KATA:1,2012-05-03T18:30:00Z,30.2583,-88.2131,0.0,7.84,106.5,-9999.0,'1111122,1111122,1111122' 
DISL,ioos:station:DISL:KATA:1,2012-05-03T19:00:00Z,30.2583,-88.2131,0.0,6.28,117.9,-9999.0,'1111122,1111122,1111122' 
DISL,ioos:station:DISL:KATA:1,2012-05-03T19:30:00Z,30.2583,-88.2131,0.0,7.63,122.0,-9999.0,'1111122,1111122,1111122' 
DISL,ioos:station:DISL:KATA:1,2012-05-03T20:00:00Z,30.2583,-88.2131,0.0,7.73,128.0,-9999.0,'1111122,1111122,1111122' 
DISL,ioos:station:DISL:KATA:1,2012-05-03T20:30:00Z,30.2583,-88.2131,0.0,8.16,122.9,-9999.0,'1111122,1111122,1111122' 
DISL,ioos:station:DISL:KATA:1,2012-05-03T21:00:00Z,30.2583,-88.2131,0.0,7.65,119.4,-9999.0,'1111122,1111122,1111122' 
DISL,ioos:station:DISL:KATA:1,2012-05-03T21:30:00Z,30.2583,-88.2131,0.0,7.53,117.5,-9999.0,'1111122,1111122,1111122' 
DISL,ioos:station:DISL:KATA:1,2012-05-03T22:00:00Z,30.2583,-88.2131,0.0,7.16,117.0,-9999.0,'1111122,1111122,1111122' 
DISL,ioos:station:DISL:KATA:1,2012-05-03T22:30:00Z,30.2583,-88.2131,0.0,6.82,105.2,-9999.0,'1111122,1111122,1111122' 
DISL,ioos:station:DISL:KATA:1,2012-05-03T23:00:00Z,30.2583,-88.2131,0.0,7.62,106.9,-9999.0,'1111122,1111122,1111122' 
DISL,ioos:station:DISL:KATA:1,2012-05-03T23:30:00Z,30.2583,-88.2131,0.0,8.0,114.8,-9999.0,'1111122,1111122,1111122' 
DISL,ioos:station:DISL:KATA:1,2012-05-04T00:00:00Z,30.2583,-88.2131,0.0,7.76,109.1,-9999.0,'1111122,1111122,1111122' 
DISL,ioos:station:DISL:KATA:1,2012-05-04T00:30:00Z,30.2583,-88.2131,0.0,8.0,115.4,-9999.0,'1111122,1111122,1111122' 
DISL,ioos:station:DISL:KATA:1,2012-05-04T01:00:00Z,30.2583,-88.2131,0.0,8.0,105.9,-9999.0,'1111122,1111122,1111122' 
DISL,ioos:station:DISL:KATA:1,2012-05-04T01:30:00Z,30.2583,-88.2131,0.0,8.65,107.5,-9999.0,'1111122,1111122,1111122' 
DISL,ioos:station:DISL:KATA:1,2012-05-04T02:00:00Z,30.2583,-88.2131,0.0,9.11,99.7,-9999.0,'1111122,1111122,1111122' 
DISL,ioos:station:DISL:KATA:1,2012-05-04T02:30:00Z,30.2583,-88.2131,0.0,8.6,104.7,-9999.0,'1111122,1111122,1111122' 
DISL,ioos:station:DISL:KATA:1,2012-05-04T03:00:00Z,30.2583,-88.2131,0.0,8.16,105.5,-9999.0,'1111122,1111122,1111122' 
DISL,ioos:station:DISL:KATA:1,2012-05-04T03:30:00Z,30.2583,-88.2131,0.0,8.94,108.1,-9999.0,'1111122,1111122,1111122' 
DISL,ioos:station:DISL:KATA:1,2012-05-04T04:00:00Z,30.2583,-88.2131,0.0,7.01,112.4,-9999.0,'1111122,1111122,1111122' 
DISL,ioos:station:DISL:KATA:1,2012-05-04T04:30:00Z,30.2583,-88.2131,0.0,7.13,115.6,-9999.0,'1111122,1111122,1111122' 
DISL,ioos:station:DISL:KATA:1,2012-05-04T05:00:00Z,30.2583,-88.2131,0.0,7.03,115.4,-9999.0,'1111122,1111122,1111122' 
DISL,ioos:station:DISL:KATA:1,2012-05-04T05:30:00Z,30.2583,-88.2131,0.0,6.44,115.6,-9999.0,'1111122,1111122,1111122' 
DISL,ioos:station:DISL:KATA:1,2012-05-04T06:00:00Z,30.2583,-88.2131,0.0,6.46,123.3,-9999.0,'1111122,1111122,1111122' 
DISL,ioos:station:DISL:KATA:1,2012-05-04T06:30:00Z,30.2583,-88.2131,0.0,5.07,127.6,-9999.0,'1111122,1111122,1111122' 
DISL,ioos:station:DISL:KATA:1,2012-05-04T07:00:00Z,30.2583,-88.2131,0.0,5.14,136.8,-9999.0,'1111122,1111122,1111122' 
DISL,ioos:station:DISL:KATA:1,2012-05-04T07:30:00Z,30.2583,-88.2131,0.0,4.68,142.7,-9999.0,'1111122,1111122,1111122' 
DISL,ioos:station:DISL:KATA:1,2012-05-04T08:00:00Z,30.2583,-88.2131,0.0,4.11,148.0,-9999.0,'1111122,1111122,1111122' 
DISL,ioos:station:DISL:KATA:1,2012-05-04T08:30:00Z,30.2583,-88.2131,0.0,2.8,162.8,-9999.0,'1111122,1111122,1111122' 
DISL,ioos:station:DISL:KATA:1,2012-05-04T09:00:00Z,30.2583,-88.2131,0.0,1.75,172.6,-9999.0,'1111122,1111122,1111122' 
DISL,ioos:station:DISL:KATA:1,2012-05-04T09:30:00Z,30.2583,-88.2131,0.0,1.84,228.2,-9999.0,'1111122,1111122,1111122' 
DISL,ioos:station:DISL:KATA:1,2012-05-04T10:00:00Z,30.2583,-88.2131,0.0,3.01,205.3,-9999.0,'1111122,1111122,1111122' 
DISL,ioos:station:DISL:KATA:1,2012-05-04T10:30:00Z,30.2583,-88.2131,0.0,3.4,208.8,-9999.0,'1111122,1111122,1111122' 
DISL,ioos:station:DISL:KATA:1,2012-05-04T11:00:00Z,30.2583,-88.2131,0.0,3.99,206.9,-9999.0,'1111122,1111122,1111122' 
DISL,ioos:station:DISL:KATA:1,2012-05-04T11:30:00Z,30.2583,-88.2131,0.0,3.79,196.5,-9999.0,'1111122,1111122,1111122' 
DISL,ioos:station:DISL:KATA:1,2012-05-04T12:00:00Z,30.2583,-88.2131,0.0,3.64,192.7,-9999.0,'1111122,1111122,1111122' 
DISL,ioos:station:DISL:KATA:1,2012-05-04T12:30:00Z,30.2583,-88.2131,0.0,3.6,186.3,-9999.0,'1111122,1111122,1111122' 
DISL,ioos:station:DISL:KATA:1,2012-05-04T13:00:00Z,30.2583,-88.2131,0.0,2.59,197.4,-9999.0,'1111122,1111122,1111122' 
DISL,ioos:station:DISL:KATA:1,2012-05-04T13:30:00Z,30.2583,-88.2131,0.0,1.81,209.5,-9999.0,'1111122,1111122,1111122' 
DISL,ioos:station:DISL:KATA:1,2012-05-04T14:00:00Z,30.2583,-88.2131,0.0,2.17,194.2,-9999.0,'1111122,1111122,1111122' 
DISL,ioos:station:DISL:KATA:1,2012-05-04T14:30:00Z,30.2583,-88.2131,0.0,2.3,195.1,-9999.0,'1111122,1111122,1111122' 
DISL,ioos:station:DISL:KATA:1,2012-05-04T15:00:00Z,30.2583,-88.2131,0.0,2.16,188.1,-9999.0,'1111122,1111122,1111122' 
DISL,ioos:station:DISL:KATA:1,2012-05-04T15:30:00Z,30.2583,-88.2131,0.0,1.72,180.0,-9999.0,'1111122,1111122,1111122' 
DISL,ioos:station:DISL:KATA:1,2012-05-04T16:00:00Z,30.2583,-88.2131,0.0,2.54,166.1,-9999.0,'1111122,1111122,1111122' 
DISL,ioos:station:DISL:KATA:1,2012-05-04T16:30:00Z,30.2583,-88.2131,0.0,2.15,159.7,-9999.0,'1111122,1111122,1111122' 
DISL,ioos:station:DISL:KATA:1,2012-05-04T17:00:00Z,30.2583,-88.2131,0.0,2.69,143.6,-9999.0,'1111122,1111122,1111122' 
DISL,ioos:station:DISL:KATA:1,2012-05-04T17:30:00Z,30.2583,-88.2131,0.0,2.82,140.1,-9999.0,'1111122,1111122,1111122' 
DISL,ioos:station:DISL:KATA:1,2012-05-04T18:00:00Z,30.2583,-88.2131,0.0,3.11,152.5,-9999.0,'1111122,1111122,1111122' 
DISL,ioos:station:DISL:KATA:1,2012-05-04T18:30:00Z,30.2583,-88.2131,0.0,3.68,154.1,-9999.0,'1111122,1111122,1111122' 
DISL,ioos:station:DISL:KATA:1,2012-05-04T19:00:00Z,30.2583,-88.2131,0.0,3.56,167.9,-9999.0,'1111122,1111122,1111122' 
DISL,ioos:station:DISL:KATA:1,2012-05-04T19:30:00Z,30.2583,-88.2131,0.0,3.54,161.8,-9999.0,'1111122,1111122,1111122' 
DISL,ioos:station:DISL:KATA:1,2012-05-04T20:00:00Z,30.2583,-88.2131,0.0,4.65,151.3,-9999.0,'1111122,1111122,1111122' 
DISL,ioos:station:DISL:KATA:1,2012-05-04T20:30:00Z,30.2583,-88.2131,0.0,4.06,152.1,-9999.0,'1111122,1111122,1111122' 
DISL,ioos:station:DISL:KATA:1,2012-05-04T21:00:00Z,30.2583,-88.2131,0.0,5.0,139.4,-9999.0,'1111122,1111122,1111122' 
DISL,ioos:station:DISL:KATA:1,2012-05-04T21:30:00Z,30.2583,-88.2131,0.0,5.6,147.2,-9999.0,'1111122,1111122,1111122' 
DISL,ioos:station:DISL:KATA:1,2012-05-04T22:00:00Z,30.2583,-88.2131,0.0,5.61,139.6,-9999.0,'1111122,1111122,1111122' 
DISL,ioos:station:DISL:KATA:1,2012-05-04T22:30:00Z,30.2583,-88.2131,0.0,5.1,151.6,-9999.0,'1111122,1111122,1111122' 
DISL,ioos:station:DISL:KATA:1,2012-05-04T23:00:00Z,30.2583,-88.2131,0.0,4.76,147.8,-9999.0,'1111122,1111122,1111122' 
DISL,ioos:station:DISL:KATA:1,2012-05-04T23:30:00Z,30.2583,-88.2131,0.0,5.05,133.5,-9999.0,'1111122,1111122,1111122' 
DISL,ioos:station:DISL:KATA:1,2012-05-05T00:00:00Z,30.2583,-88.2131,0.0,4.5,144.4,-9999.0,'1111122,1111122,1111122' 
DISL,ioos:station:DISL:KATA:1,2012-05-05T00:30:00Z,30.2583,-88.2131,0.0,4.76,132.2,-9999.0,'1111122,1111122,1111122' 
DISL,ioos:station:DISL:KATA:1,2012-05-05T01:00:00Z,30.2583,-88.2131,0.0,5.2,125.3,-9999.0,'1111122,1111122,1111122' 
DISL,ioos:station:DISL:KATA:1,2012-05-05T01:30:00Z,30.2583,-88.2131,0.0,4.44,141.2,-9999.0,'1111122,1111122,1111122' 
DISL,ioos:station:DISL:KATA:1,2012-05-05T02:00:00Z,30.2583,-88.2131,0.0,4.95,135.1,-9999.0,'1111122,1111122,1111122' 
DISL,ioos:station:DISL:KATA:1,2012-05-05T02:30:00Z,30.2583,-88.2131,0.0,5.83,140.4,-9999.0,'1111122,1111122,1111122' 
DISL,ioos:station:DISL:KATA:1,2012-05-05T03:00:00Z,30.2583,-88.2131,0.0,4.46,141.6,-9999.0,'1111122,1111122,1111122' 
DISL,ioos:station:DISL:KATA:1,2012-05-05T03:30:00Z,30.2583,-88.2131,0.0,3.66,151.9,-9999.0,'1111122,1111122,1111122' 
DISL,ioos:station:DISL:KATA:1,2012-05-05T04:00:00Z,30.2583,-88.2131,0.0,4.03,147.4,-9999.0,'1111122,1111122,1111122' 
DISL,ioos:station:DISL:KATA:1,2012-05-05T04:30:00Z,30.2583,-88.2131,0.0,4.37,146.9,-9999.0,'1111122,1111122,1111122' 